This is the latest recevied weather packets stored in our database for station/object AB0TJ. If no packets are shown the sender has not sent any weather packets the latest 1 day(s).
| Time | Temp. | Humidity | Pressure | Rain* | Wind** | Luminosity | Snow |
|---|---|---|---|---|---|---|---|
| 1778021034 | 22.78° C | 11% | 1004.3 hPa | 0 mm | 4.47 m/s, 276° | 560 W/m² | - |
| 1778020524 | 22.22° C | 12% | 1004 hPa | 0 mm | 4.92 m/s, 279° | 603 W/m² | - |
| 1778019932 | 21.67° C | 11% | 1004.1 hPa | 0 mm | 4.47 m/s, 288° | 563 W/m² | - |
| 1778019434 | 21.67° C | 11% | 1004.2 hPa | 0 mm | 4.02 m/s, 282° | 330 W/m² | - |
| 1778018954 | 21.67° C | 12% | 1004.4 hPa | 0 mm | 4.02 m/s, 289° | 329 W/m² | - |
| 1778018369 | 21.67° C | 12% | 1004.5 hPa | 0 mm | 4.92 m/s, 306° | 540 W/m² | - |
| 1778017819 | 21.67° C | 12% | 1004.7 hPa | 0 mm | 4.92 m/s, 276° | 465 W/m² | - |
| 1778017246 | 21.67° C | 13% | 1004.8 hPa | 0 mm | 4.92 m/s, 321° | 429 W/m² | - |
| 1778016659 | 21.67° C | 14% | 1004.8 hPa | 0 mm | 4.92 m/s, 292° | 360 W/m² | - |
| 1778016109 | 22.22° C | 13% | 1004.9 hPa | 0 mm | 4.92 m/s, 288° | 375 W/m² | - |
| 1778015623 | 22.78° C | 14% | 1004.9 hPa | 0 mm | 4.92 m/s, 304° | 645 W/m² | - |
| 1778015089 | 22.78° C | 14% | 1005 hPa | 0 mm | 4.47 m/s, 289° | 643 W/m² | - |
| 1778014522 | 22.78° C | 14% | 1005.2 hPa | 0 mm | 4.02 m/s, 270° | 786 W/m² | - |
| 1778013979 | 22.78° C | 14% | 1005.1 hPa | 0 mm | 4.92 m/s, 275° | 830 W/m² | - |
| 1778013469 | 22.22° C | 14% | 1005.4 hPa | 0 mm | 4.02 m/s, 311° | 817 W/m² | - |
| 1778012872 | 22.22° C | 14% | 1005.4 hPa | 0 mm | 4.02 m/s, 298° | 816 W/m² | - |
| 1778012329 | 22.22° C | 15% | 1005.5 hPa | 0 mm | 3.58 m/s, 316° | 827 W/m² | - |
| 1778011759 | 22.22° C | 16% | 1005.5 hPa | 0 mm | 4.02 m/s, 290° | 846 W/m² | - |
| 1778011164 | 21.67° C | 16% | 1005.5 hPa | 0 mm | 4.92 m/s, 281° | 860 W/m² | - |
| 1778010604 | 21.67° C | 17% | 1005.4 hPa | 0 mm | 2.68 m/s, 281° | 876 W/m² | - |
| 1778010019 | 21.11° C | 18% | 1005.5 hPa | 0 mm | 4.47 m/s, 322° | 559 W/m² | - |
| 1778009508 | 21.11° C | 18% | 1005.6 hPa | 0 mm | 2.68 m/s, 335° | 699 W/m² | - |
| 1778009019 | 20.56° C | 18% | 1005.7 hPa | 0 mm | 2.68 m/s, 300° | 271 W/m² | - |
| 1778008520 | 21.11° C | 21% | 1005.9 hPa | 0 mm | 1.34 m/s, 250° | 198 W/m² | - |
| 1778007992 | 21.67° C | 20% | 1005.9 hPa | 0 mm | 1.34 m/s, 143° | 226 W/m² | - |
* Rain latest hour (hover to see other rain measurements)
** Current wind speed in m/s (hover to see current wind gust speed)